This is the latest recevied weather packets stored in our database for station/object SQ7IQO. If no packets are shown the sender has not sent any weather packets the latest 10 day(s).
| Time | Temp. | Humidity | Pressure | Rain* | Wind** | Luminosity | Snow |
|---|---|---|---|---|---|---|---|
| 1787562054 | 17.78° C | 66% | 1022.2 hPa | 0 mm | 1.34 m/s, ° | - | - |
| 1787561994 | 17.78° C | 67% | 1022.2 hPa | 0 mm | 1.34 m/s, ° | - | - |
| 1787561935 | 17.22° C | 68% | 1022.2 hPa | 0 mm | 1.34 m/s, ° | - | - |
| 1787561875 | 17.22° C | 67% | 1022.2 hPa | 0 mm | 1.34 m/s, ° | - | - |
| 1787561815 | 17.22° C | 69% | 1022.2 hPa | 0 mm | 0.89 m/s, ° | - | - |
| 1787561755 | 16.67° C | 68% | 1022.3 hPa | 0 mm | 1.34 m/s, ° | - | - |
| 1787561695 | 17.22° C | 69% | 1022.2 hPa | 0 mm | 1.79 m/s, ° | - | - |
| 1787561635 | 17.22° C | 69% | 1022.3 hPa | 0 mm | 1.34 m/s, ° | - | - |
| 1787561574 | 17.78° C | 68% | 1022.3 hPa | 0 mm | 1.34 m/s, ° | - | - |
| 1787561514 | 17.78° C | 68% | 1022.2 hPa | 0 mm | 1.34 m/s, ° | - | - |
| 1787561454 | 17.22° C | 70% | 1022.2 hPa | 0 mm | 0.45 m/s, ° | - | - |
| 1787561394 | 17.22° C | 68% | 1022.2 hPa | 0 mm | 0.89 m/s, ° | - | - |
| 1787561335 | 17.78° C | 69% | 1022.2 hPa | 0 mm | 1.34 m/s, ° | - | - |
| 1787561274 | 17.78° C | 67% | 1022.2 hPa | 0 mm | 0.89 m/s, ° | - | - |
| 1787561214 | 18.33° C | 68% | 1022.2 hPa | 0 mm | 0.89 m/s, ° | - | - |
| 1787561154 | 17.22° C | 69% | 1022.2 hPa | 0 mm | 0.45 m/s, ° | - | - |
| 1787561094 | 17.22° C | 71% | 1022.2 hPa | 0 mm | 0.89 m/s, ° | - | - |
| 1787561034 | 16.67° C | 70% | 1022.2 hPa | 0 mm | 1.79 m/s, ° | - | - |
| 1787560975 | 16.67° C | 71% | 1022.2 hPa | 0 mm | 0.89 m/s, ° | - | - |
| 1787560915 | 16.67° C | 72% | 1022.2 hPa | 0 mm | 0.89 m/s, ° | - | - |
| 1787560855 | 16.67° C | 72% | 1022.2 hPa | 0 mm | 0.89 m/s, ° | - | - |
| 1787560795 | 16.67° C | 71% | 1022.2 hPa | 0 mm | 1.79 m/s, ° | - | - |
| 1787560735 | 17.22° C | 70% | 1022.2 hPa | 0 mm | 1.79 m/s, ° | - | - |
| 1787560675 | 16.67° C | 70% | 1022.3 hPa | 0 mm | 0.89 m/s, ° | - | - |
| 1787560615 | 17.22° C | 70% | 1022.3 hPa | 0 mm | 1.34 m/s, ° | - | - |
* Rain latest hour (hover to see other rain measurements)
** Current wind speed in m/s (hover to see current wind gust speed)